Probability
0 0 0 0 0 0 0 0 0 0 2 5 6 6 5 2 0 0 1 3 4 4 3 3 4 3 1 0 0 0 0 0 0 0 0 0 0 0 0 0 0 0 0 0 0 0 0 0 0
0 0 0 0 0 0 0 0 0 1 3 7 9 9 8 4 1 0 2 6 11 10 6 6 8 6 3 1 1 0 0 0 0 0 0 0 0 0 0 0 0 0 0 0 0 0 0 0 0
0 0 0 0 0 0 0 0 0 3 8 12 13 13 11 7 3 1 4 12 18 17 13 12 13 10 7 5 3 1 0 0 0 0 0 0 0 0 0 0 0 0 0 0 0 0 0 0 0
0 0 0 0 0 0 0 0 2 7 14 17 17 17 14 11 9 6 8 15 21 21 20 19 18 14 10 9 6 2 0 0 0 0 0 0 0 0 0 0 0 0 0 0 0 0 0 0 0
0 0 0 0 0 0 0 0 4 11 18 22 22 20 18 18 19 17 14 18 24 28 27 25 22 17 12 10 8 4 1 0 0 0 0 0 0 0 0 0 0 0 0 0 0 0 0 0 0
0 0 0 0 0 0 0 1 6 14 21 25 24 23 22 25 28 24 21 23 32 40 37 29 25 20 14 11 9 5 2 0 0 0 0 0 0 0 0 0 0 0 0 0 0 0 0 0 0
0 0 0 0 0 0 0 2 6 12 19 23 24 24 26 28 29 27 26 31 40 48 44 34 26 21 15 12 9 7 4 1 0 0 0 0 0 0 0 0 0 0 0 0 0 0 0 0 0
0 0 0 0 0 0 1 2 4 8 16 22 23 24 28 31 32 33 34 38 43 46 43 36 29 23 18 13 9 6 4 1 0 0 0 0 0 0 0 0 0 0 0 0 0 0 0 0 0
0 0 0 0 0 0 1 2 3 8 18 26 27 27 31 38 42 45 46 44 44 43 40 36 31 27 22 15 10 7 4 2 0 0 1 0 0 0 0 0 0 0 0 0 0 0 0 0 0
0 0 0 0 0 0 2 3 3 11 21 29 34 37 40 45 49 51 50 48 46 42 36 31 27 25 22 17 13 9 6 3 1 0 0 0 0 0 0 0 0 0 0 0 0 0 0 1 1
0 0 0 1 1 1 3 4 4 10 20 29 38 45 47 49 52 51 49 46 42 35 28 26 24 21 19 17 15 11 6 3 1 0 0 0 0 0 0 0 0 0 0 0 0 0 0 0 0
0 0 0 1 2 2 3 3 5 12 22 31 41 47 49 50 50 48 47 43 36 28 22 23 23 19 16 15 14 9 4 2 0 0 0 0 0 0 0 0 0 0 0 0 0 0 0 0 0
0 0 0 1 1 2 3 3 6 16 27 37 46 49 48 47 44 39 40 39 34 28 23 22 22 19 16 15 12 7 2 0 0 0 0 0 0 0 0 0 0 0 0 0 0 0 0 0 0
0 0 0 0 0 1 2 2 7 18 30 40 46 46 44 40 34 30 33 35 33 29 28 26 24 22 19 17 14 8 3 1 1 0 0 0 0 0 0 0 0 0 0 0 0 0 0 0 0
0 0 0 0 0 0 1 1 5 15 27 35 39 39 37 34 27 25 29 33 32 33 33 31 27 24 23 21 18 12 6 4 2 1 0 0 0 0 0 0 0 0 0 0 0 0 0 0 0
0 0 0 0 0 0 0 1 5 13 22 27 30 33 33 31 27 24 27 31 32 34 36 35 30 26 25 24 20 16 11 7 4 1 2 3 2 2 1 0 0 0 0 0 0 0 0 0 0
0 0 0 0 0 0 0 3 9 14 17 20 25 30 32 31 27 25 26 29 31 33 35 35 32 29 28 27 23 18 13 9 6 4 4 5 4 3 2 1 0 0 0 0 0 0 0 0 0
0 0 0 0 0 0 1 5 12 17 17 17 21 29 33 31 28 26 26 28 30 32 34 34 33 33 32 30 26 19 14 11 8 7 5 4 4 3 3 1 0 0 0 0 0 0 0 0 0
0 0 0 0 0 1 3 7 13 15 15 15 18 24 28 29 27 25 25 27 29 31 33 33 33 33 32 30 27 22 16 11 9 7 4 3 3 3 3 2 1 0 0 0 0 0 0 0 0
0 0 0 0 1 2 5 9 11 12 12 11 13 14 18 22 24 23 23 25 28 28 29 30 30 29 28 27 26 22 18 12 7 4 4 3 3 3 3 3 2 0 0 0 0 0 0 0 0
0 0 0 0 1 2 5 6 7 7 7 7 6 6 8 14 18 20 21 22 24 24 23 24 24 23 23 23 22 20 16 11 6 3 3 3 3 3 3 3 1 0 0 0 0 0 0 0 0
0 0 0 0 0 1 2 2 2 3 3 2 2 2 4 9 13 15 18 19 19 20 19 19 18 18 19 18 18 17 14 10 7 4 3 3 3 3 3 3 1 0 0 0 0 0 0 0 0
0 0 0 0 0 0 0 0 1 1 1 0 1 2 3 5 7 10 12 14 17 18 17 16 14 14 14 13 13 13 11 8 6 5 3 3 3 3 3 3 2 0 0 0 0 0 0 0 0
0 0 0 0 0 0 0 0 1 1 1 0 1 2 2 2 3 5 7 10 14 15 13 12 10 9 10 9 9 9 7 5 4 4 2 1 2 2 2 2 1 0 0 0 0 0 0 0 0
0 0 0 0 0 0 0 0 0 0 0 0 0 1 2 2 2 3 4 7 11 11 9 8 7 8 9 8 6 5 5 4 3 3 1 0 1 1 1 1 0 0 0 0 0 0 0 0 0
0 0 0 0 0 0 0 0 0 0 0 0 0 1 2 2 2 3 4 6 8 8 7 7 7 8 10 9 6 4 3 3 3 2 1 0 0 0 0 0 0 0 0 0 0 0 0 0 0
0 0 0 0 0 0 0 0 0 0 0 0 0 1 2 3 3 3 4 5 6 6 7 8 8 9 10 10 7 4 3 3 3 2 1 0 0 0 0 0 0 0 0 0 0 0 0 0 0
0 0 0 0 0 0 0 0 0 0 0 0 0 1 2 3 3 2 2 4 4 6 8 10 10 9 8 8 7 5 3 3 2 1 0 0 0 0 0 0 0 0 0 0 0 0 0 0 0
0 0 0 0 0 0 0 0 0 0 0 0 0 0 1 3 3 2 2 3 4 6 9 10 9 8 7 7 6 6 4 3 2 0 0 0 0 0 0 0 0 0 0 0 0 0 0 0 0
0 0 0 0 0 0 0 0 0 0 0 0 0 0 1 2 3 2 2 4 5 6 9 9 8 7 6 6 6 6 5 3 2 1 0 0 0 0 0 0 0 0 0 0 0 0 0 0 0
Wind_Speed
6 4 2 1 2 2 3 5 4 2 1 4 8 9 7 5 3 4 6 16 19 17 14 17 19 19 19 19 18 17 17 17 17 16 16 16 15 15 15 15 15 14 14 14 13 13 13 12 12
3 4 1 2 3 1 5 3 4 3 6 8 9 8 8 7 7 8 9 16 20 17 13 15 20 20 20 19 18 17 17 17 16 16 15 15 15 15 15 15 14 14 14 13 13 12 12 12 11
3 3 2 2 1 4 5 3 4 5 8 8 6 5 6 5 6 5 11 19 17 15 12 16 22 21 20 19 18 17 17 17 16 16 15 15 15 14 14 14 14 14 13 13 12 11 11 10 10
2 2 2 1 5 7 6 5 4 6 7 8 9 6 3 3 6 11 18 18 17 14 12 16 21 21 20 19 18 17 17 16 16 15 15 15 14 14 14 14 13 13 13 12 11 10 10 9 8
2 3 2 2 6 6 4 7 5 7 5 7 9 7 3 3 13 19 18 17 17 14 12 15 21 21 20 19 18 18 17 16 16 15 15 14 14 14 14 13 13 12 12 11 10 9 8 7 7
2 2 2 3 5 5 3 3 7 10 9 8 9 8 3 6 16 17 16 15 16 16 13 13 20 21 20 19 19 18 17 16 16 15 15 14 14 13 13 13 12 12 11 10 9 8 7 6 5
3 1 3 4 6 4 3 4 7 8 9 7 9 8 5 7 12 14 15 14 14 15 13 10 12 15 19 19 19 18 17 16 16 15 15 14 14 13 13 12 12 11 10 10 9 7 6 4 4
4 2 3 3 3 2 1 4 6 8 8 8 7 9 7 10 13 13 13 13 13 12 12 10 9 9 10 12 18 18 17 16 16 15 15 14 13 13 12 10 10 10 10 9 8 6 4 2 1
2 1 4 4 2 2 1 5 4 6 9 5 3 5 10 15 16 15 13 12 12 13 10 10 10 9 8 8 14 14 16 15 14 12 15 12 6 6 7 9 11 10 9 8 7 6 4 2 1
4 3 8 6 4 2 1 5 6 5 7 5 6 8 12 15 16 16 16 16 15 14 12 11 11 10 9 9 8 5 6 7 6 5 6 4 4 4 6 8 11 10 9 8 6 5 3 1 1
5 7 8 7 5 2 2 2 4 8 4 8 12 14 14 14 14 15 14 14 14 14 13 12 11 10 9 6 6 4 3 4 4 5 5 4 3 3 3 3 4 4 5 3 3 2 1 1 0
5 8 8 7 3 1 2 3 5 4 6 11 15 16 14 14 14 14 14 12 12 12 12 12 11 10 9 7 6 5 4 4 4 5 6 4 3 3 3 2 3 2 2 2 1 1 1 1 1
5 7 7 6 1 2 4 4 5 3 8 12 13 14 12 12 11 10 12 13 12 11 12 11 10 10 9 7 6 6 5 5 5 4 5 6 5 4 4 3 2 3 2 3 2 2 1 1 1
5 4 5 4 2 1 5 3 6 4 9 12 12 11 11 12 11 9 11 11 11 12 11 11 11 10 9 7 5 5 5 5 4 4 5 6 5 5 4 3 3 2 2 2 2 2 1 1 0
3 4 6 4 1 1 4 1 4 8 11 11 11 10 10 10 10 10 11 11 11 11 11 11 11 10 9 8 7 6 5 5 5 4 5 6 5 5 4 4 3 2 2 3 2 2 1 1 1
5 3 4 7 2 2 5 5 5 10 12 10 10 9 9 8 9 9 10 10 9 10 11 11 11 10 9 7 6 6 6 6 5 4 4 5 6 6 5 4 3 2 3 3 3 2 2 1 1
3 2 5 7 3 2 4 5 5 9 10 9 8 8 8 7 7 8 10 10 9 10 11 11 10 10 9 8 6 6 5 5 4 4 4 5 6 6 5 4 3 3 3 3 2 2 2 1 0
6 5 6 7 5 5 4 5 5 8 9 8 7 7 8 8 7 7 8 9 9 9 9 10 10 9 9 7 6 5 5 4 4 4 4 5 5 6 5 4 4 4 3 3 2 2 1 1 0
9 9 10 9 4 4 5 5 6 7 7 7 7 7 8 7 6 6 8 10 10 9 9 10 10 8 8 6 6 5 5 4 3 3 5 5 5 6 5 4 4 4 3 3 3 2 2 1 1
10 9 8 6 1 3 3 3 4 6 9 8 8 8 8 7 6 6 7 8 9 10 10 10 10 8 7 6 5 4 5 4 4 3 4 5 6 6 5 5 4 3 3 3 3 2 2 1 1
10 7 6 5 1 5 5 2 2 2 3 5 7 7 7 9 9 9 8 9 9 10 11 11 10 9 8 7 5 5 4 3 2 3 3 4 5 5 5 6 5 4 3 3 2 3 3 1 2
9 8 4 2 4 2 2 1 5 3 2 3 5 6 7 7 8 8 9 9 11 11 10 10 10 9 8 8 8 8 6 5 5 4 3 3 5 6 6 6 5 4 3 3 3 3 2 3 1
8 5 0 2 5 3 4 2 5 1 4 6 7 9 9 9 9 9 10 10 10 11 11 10 10 9 8 8 8 8 5 4 4 4 5 4 3 5 6 6 5 5 4 4 3 3 3 2 2
4 2 5 6 6 3 1 2 6 4 6 6 7 9 10 10 9 9 9 8 8 8 9 10 9 8 8 8 8 8 8 7 7 6 5 4 3 3 4 5 5 5 4 4 3 3 3 2 2
1 4 4 5 5 2 2 2 8 8 7 7 9 10 10 10 10 9 10 10 10 10 10 10 10 9 8 9 8 8 8 9 9 8 7 5 3 3 4 5 5 4 4 4 4 3 3 3 3
4 8 7 5 4 3 2 4 9 9 7 5 7 9 10 11 10 11 11 11 11 12 11 11 11 9 9 8 8 7 8 6 6 7 7 6 5 5 6 6 6 5 5 5 4 3 2 3 3
3 3 7 7 3 1 2 6 10 6 4 3 6 10 11 12 12 12 12 11 11 12 11 11 11 9 8 8 7 7 7 7 7 7 6 5 4 5 6 6 6 6 5 5 4 3 3 3 3
6 6 5 6 4 2 3 4 6 6 6 3 4 8 11 11 12 12 12 11 11 11 10 10 10 10 9 8 8 7 7 7 7 6 7 6 6 6 7 7 6 6 5 5 4 3 3 3 3
1 3 5 4 5 6 4 7 8 9 8 6 7 9 11 13 13 13 12 11 11 10 11 11 10 9 9 9 7 7 6 6 6 6 7 7 6 7 8 8 7 6 6 5 5 4 4 4 3
6 6 7 6 4 5 5 7 6 8 7 7 7 8 10 12 12 12 12 11 11 11 12 12 11 11 10 10 8 8 7 6 6 7 7 7 7 8 8 8 8 7 7 6 6 6 5 5 5
Wind_Direction
188 191 176 80 54 30 270 243 210 219 109 79 95 106 101 88 133 154 136 138 137 143 147 144 140 137 134 131 129 127 124 122 120 118 117 116 115 114 115 114 112 111 110 108 107 106 105 104 104
186 188 146 57 80 329 272 246 215 185 135 114 89 92 83 66 74 104 124 140 139 142 145 144 142 140 137 135 134 132 130 128 126 124 122 121 120 118 117 116 114 113 112 110 110 109 107 106 104
203 187 127 98 161 206 250 230 201 131 122 111 97 70 83 106 109 116 138 140 137 141 144 147 144 142 140 139 138 137 135 133 131 130 127 126 125 123 120 119 118 116 115 113 112 110 109 106 105
168 88 64 92 243 240 227 216 181 121 92 86 102 83 70 104 125 131 138 141 138 141 144 148 145 144 143 143 142 141 140 138 137 135 132 130 130 128 126 123 122 120 118 117 115 113 110 107 103
107 96 64 284 258 263 227 188 151 107 104 101 103 103 69 31 117 130 141 144 141 141 144 147 147 147 146 146 146 145 145 143 141 140 137 135 134 132 130 128 126 125 123 122 121 119 115 108 96
60 87 91 267 265 266 264 159 116 101 111 110 104 115 114 121 126 139 145 145 144 143 144 147 149 149 149 149 149 148 148 147 146 144 142 141 139 136 135 135 134 132 130 128 127 126 122 112 94
147 130 225 249 281 283 197 141 115 121 126 131 133 121 129 141 140 142 143 142 143 143 144 146 151 152 153 152 152 152 152 152 151 149 147 146 145 143 143 143 142 140 139 138 136 135 131 119 95
172 115 287 279 289 307 148 99 109 117 118 129 131 135 160 162 147 137 138 141 141 144 146 147 148 149 151 153 155 156 156 156 156 155 154 153 153 153 151 149 150 149 149 149 147 147 144 136 101
168 83 262 249 240 273 112 98 85 89 109 109 110 138 151 146 143 139 140 143 148 151 151 150 151 151 150 153 160 158 160 161 160 159 161 158 153 153 156 160 161 160 162 161 160 161 167 182 261
151 186 238 228 220 200 138 113 126 106 103 99 93 107 133 140 145 149 155 159 159 160 160 159 157 158 158 162 154 157 160 160 159 160 161 155 156 168 169 173 172 172 172 170 173 179 191 200 315
192 216 249 262 251 182 129 95 98 126 130 153 147 147 151 147 149 153 157 161 163 162 164 165 164 165 166 158 156 158 156 157 162 167 168 162 162 173 166 163 171 174 176 168 176 179 180 151 190
239 258 261 264 262 152 138 117 87 131 170 160 152 152 153 152 156 157 154 159 162 164 168 167 167 169 168 159 162 161 161 167 172 178 172 160 158 157 158 162 164 166 162 163 159 158 162 148 148
257 263 277 273 282 125 95 98 112 131 140 142 142 144 150 153 155 154 153 158 160 167 169 168 168 167 161 156 166 164 166 169 171 166 163 157 154 156 159 161 163 170 163 162 162 161 156 139 123
263 288 296 296 293 148 117 108 108 169 146 145 146 150 154 156 157 148 150 157 161 166 165 160 162 162 156 156 159 158 163 161 154 149 152 149 148 151 148 148 152 157 159 159 156 154 149 152 147
304 320 321 301 261 178 105 16 175 171 152 151 157 160 159 164 164 161 163 163 166 166 161 156 158 158 155 154 156 153 152 147 145 147 146 147 144 144 141 137 139 149 142 125 104 97 93 101 121
344 350 299 285 249 192 125 237 212 163 155 157 162 165 166 171 170 165 164 160 163 160 157 159 158 157 151 147 144 145 145 144 149 149 145 143 138 138 133 130 134 135 119 114 112 94 81 64 71
344 278 266 282 252 187 149 220 205 163 159 163 167 166 165 172 172 167 164 160 160 159 156 158 155 160 151 145 142 140 140 142 149 147 141 139 135 136 133 129 128 119 107 109 119 97 108 91 349
261 264 271 265 244 182 191 216 177 168 166 173 172 163 161 175 182 173 164 161 161 158 155 157 158 158 147 140 132 126 129 138 143 143 143 139 133 133 128 125 125 117 109 102 99 98 84 101 265
252 267 275 275 237 165 196 202 185 169 168 174 172 169 172 177 177 162 163 162 159 156 156 153 157 160 151 143 143 142 146 150 148 154 149 141 136 135 131 131 129 124 123 128 119 100 70 27 28
260 268 277 292 270 137 163 182 189 183 186 178 174 180 176 163 161 166 171 167 164 164 158 154 160 166 159 152 151 148 144 149 151 150 145 145 143 143 140 135 139 136 123 110 96 92 88 21 47
269 251 237 239 37 55 95 14 269 238 190 174 174 177 173 172 170 173 174 172 167 170 169 165 167 167 161 150 140 127 108 101 117 142 154 160 148 142 138 144 141 140 133 134 126 115 116 88 16
268 263 231 184 97 23 58 206 280 266 267 208 184 173 179 176 174 177 180 177 178 179 172 163 164 165 162 155 150 151 152 159 175 167 166 163 150 147 147 147 142 140 136 140 142 125 123 114 70
251 253 130 104 114 82 23 105 290 327 246 230 200 185 186 181 180 183 183 181 181 177 172 165 165 167 166 162 159 157 156 163 154 150 155 158 155 156 152 147 141 142 141 145 135 123 116 119 124
238 46 48 52 70 63 268 153 264 231 228 228 203 193 189 183 182 184 180 172 173 171 168 163 166 170 171 165 163 163 165 164 158 162 165 165 159 154 153 148 146 147 146 150 151 146 134 131 124
306 85 29 357 11 264 246 206 249 247 242 221 210 197 192 183 180 178 174 173 173 174 173 169 171 177 177 171 173 172 171 169 171 171 172 168 165 169 173 155 155 154 156 157 149 144 146 146 141
229 143 159 200 225 263 319 261 261 270 272 238 206 188 184 183 182 180 179 176 175 176 176 175 176 177 179 176 178 176 170 170 175 175 172 177 177 178 172 165 165 165 159 158 150 147 162 154 153
196 192 168 139 140 115 268 286 297 290 293 230 188 175 182 185 181 180 180 179 178 178 179 177 175 174 181 179 172 172 170 169 171 172 170 173 177 176 170 168 168 169 164 159 152 160 174 159 165
171 154 102 117 145 193 239 245 247 268 263 234 191 187 186 182 179 179 180 181 182 181 176 173 173 178 180 177 176 175 173 172 170 167 173 176 177 172 167 169 169 169 168 165 158 164 175 167 180
172 113 119 125 152 156 209 254 227 220 221 211 205 198 189 186 182 181 181 180 179 176 175 176 176 174 175 176 177 173 175 173 167 171 178 179 177 172 171 172 171 173 176 173 170 180 180 184 196
167 166 145 150 205 171 171 253 256 210 209 200 206 199 192 189 183 181 179 177 176 177 178 180 181 182 183 179 177 179 179 177 178 180 182 178 176 177 176 174 175 181 183 182 181 189 188 189 199